Location: Brachbach
(49.1847°N, 9.7240°E)
Time: 13:03:06
(UTC+00:00)

CZ-2C R/B - Pass Details

Date: 14 August 2024
Orbit: 782 x 869 km, 98.3° (Epoch: 15 September)

Event Time Altitude Azimuth Distance (km) Brightness Sun altitude
Exits shadow 23:13:39 - 95° (E) 2,754 5.3 -26.8°
Reaches altitude 10° 23:14:52 10° 85° (E) 2,462 5.1 -26.8°
Maximum altitude 23:17:45 15° 53° (NE) 2,134 5.2 -26.8°
Drops below altitude 10° 23:20:35 10° 21° (NNE) 2,439 5.9 -26.8°
Sets 23:23:58 0° 359° (N) 3,358 7.1 -26.9°
